Regional Weather Roundup
Issued by NWS Midland/Odessa, TX

Skip options and go directly to product.
Home | Oldest Version | Next Version | Current Version | All | Text Only | Save Text | Print | Product List | Glossary On

Skip product version selection by date and time.   
048
ASUS44 KMAF 251502
RWRMAF
MIDLAND AREA WEATHER ROUNDUP
NATIONAL WEATHER SERVICE MIDLAND TX
1000 AM CDT FRI JUL 25 2014

...IN SOUTHWEST TEXAS AND SOUTHEAST NEW MEXICO...

CITY           SKY/WX    TMP DP  RH WIND       PRES   REMARKS
ALPINE         SUNNY     79  57  47 S5        30.26R
ANDREWS        FAIR      82  62  50 S9        30.12S
ARTESIA        SUNNY     81  55  41 S6        30.12S
BIG SPRING     SUNNY     84  62  47 S12       30.12S
CARLSBAD       SUNNY     85  53  33 SE8       30.09F
DRYDEN           N/A     85  65  51 VRB6      30.07S
FORT STOCKTON  SUNNY     85  59  41 SW7       30.11S
GUAD PASS      SUNNY     77  53  43 SW12      30.27S
HOBBS          SUNNY     81  59  47 S7        30.15S
MARFA          SUNNY     75  55  50 SE3       30.26R
MIDLAND AIRPK  SUNNY     84  63  48 SW9       30.11S
MIDLAND INTL   SUNNY     83  64  52 S9        30.10F
ODESSA         SUNNY     82  62  50 S13       30.11F
PECOS          SUNNY     78  60  52 CALM      30.07S
PRESIDIO       FAIR      84  56  38 CALM      30.11S
SEMINOLE       SUNNY     83  60  46 SW7       30.13S HAZE
SNYDER         SUNNY     81  64  55 SW10      30.10R
WINK           MOSUNNY   83  63  50 SE9       30.08S
$$
...OTHER STATIONS IN TEXAS...

CITY           SKY/WX    TMP DP  RH WIND       PRES   REMARKS
ABILENE        SUNNY     84  67  56 S10       30.08R
AMARILLO       SUNNY     83  61  47 SW23G30   30.08S
AUSTIN         MOSUNNY   83  73  72 S10       30.05S
BROWNSVILLE    MOSUNNY   88  75  65 S15       30.02R
CORPUS CHRISTI MOSUNNY   87  74  64 S10       30.02S
DALLAS FTW     MOSUNNY   87  69  54 S10       30.01S
DEL RIO        SUNNY     84  71  65 SE13      30.02S
EL PASO        SUNNY     82  53  36 SE8       30.14S
HOUSTON INT    PTSUNNY   85  74  69 W7        30.05S
LUBBOCK        MOSUNNY   84  61  45 SW15      30.11S
SAN ANGELO     SUNNY     83  67  58 S8        30.08S
SAN ANTONIO    PTSUNNY   82  73  74 CALM      30.07S
WACO           SUNNY     87  70  56 SW8       30.03F
WICHITA FALLS  NOT AVBL
$$
...OTHER LOCATIONS IN NEW MEXICO...

CITY           SKY/WX    TMP DP  RH WIND       PRES   REMARKS
ALAMAGORDO     SUNNY     84  48  28 CALM      30.18R
ALBUQUERQUE    SUNNY     79  41  25 S7        30.24R
CANNON AFB     SUNNY     80  60  50 SW15      30.15F
CLOVIS         NOT AVBL
HOLLOMAN AFB   SUNNY     85  49  27 S3        30.16R
ROSWELL        SUNNY     84  53  34 S12       30.11F
RUIDOSO        SUNNY     75  46  35 MISG      30.37S
SANTA FE       SUNNY     75  41  29 W5        30.29S
TRUTH OR CONSE SUNNY     80  32  17 CALM      30.21R
TUCUMCARI      SUNNY     85  55  35 SW22      30.08S
$$

USA.gov is the U.S. government's official web portal to all federal, state and local government web resources and services.